Time,TemperatureF,DewpointF,PressureIn,WindDirection,WindDirectionDegrees,WindSpeedMPH,WindSpeedGustMPH,Humidity,HourlyPrecipIn,Conditions,Clouds,dailyrainin,SoftwareType,DateUTC
2013-08-16 00:02:00,55.8,55.2,29.40,South,180,0.0,-999.0,98,-99.99,,,0.00,Acu-Link.com,2013-08-16 05:02:00,
2013-08-16 00:32:00,55.2,54.6,29.41,SW,225,0.0,-999.0,98,-99.99,,,0.00,Acu-Link.com,2013-08-16 05:32:00,
2013-08-16 00:47:00,55.0,54.4,29.41,South,180,0.0,-999.0,98,-99.99,,,0.00,Acu-Link.com,2013-08-16 05:47:00,
2013-08-16 01:02:00,55.0,54.4,29.40,SSE,157,0.0,-999.0,98,-99.99,,,0.00,Acu-Link.com,2013-08-16 06:02:00,
2013-08-16 01:17:00,55.0,54.4,29.40,SSW,202,0.0,-999.0,98,-99.99,,,0.00,Acu-Link.com,2013-08-16 06:17:00,
2013-08-16 01:32:00,54.5,53.9,29.40,SSW,202,0.0,-999.0,98,-99.99,,,0.00,Acu-Link.com,2013-08-16 06:32:00,
2013-08-16 01:48:00,54.7,54.1,29.41,WSW,247,0.0,-999.0,98,-99.99,,,0.00,Acu-Link.com,2013-08-16 06:48:00,
2013-08-16 02:03:00,54.3,53.7,29.41,South,180,0.0,-999.0,98,-99.99,,,0.00,Acu-Link.com,2013-08-16 07:03:00,
2013-08-16 02:18:00,54.7,54.1,29.41,SW,225,0.0,-999.0,98,-99.99,,,0.00,Acu-Link.com,2013-08-16 07:18:00,
2013-08-16 02:33:00,54.3,53.7,29.41,SSW,202,0.0,-999.0,98,-99.99,,,0.00,Acu-Link.com,2013-08-16 07:33:00,
2013-08-16 02:48:00,54.1,53.5,29.41,SSW,202,0.0,-999.0,98,-99.99,,,0.00,Acu-Link.com,2013-08-16 07:48:00,
2013-08-16 03:03:00,53.6,53.0,29.41,SSW,202,0.0,-999.0,98,-99.99,,,0.00,Acu-Link.com,2013-08-16 08:03:00,
2013-08-16 03:18:00,53.6,53.0,29.41,South,180,0.0,-999.0,98,-99.99,,,0.00,Acu-Link.com,2013-08-16 08:18:00,
2013-08-16 03:34:00,53.6,53.0,29.42,SSW,202,0.0,-999.0,98,-99.99,,,0.00,Acu-Link.com,2013-08-16 08:34:00,
2013-08-16 03:49:00,53.6,53.0,29.41,SSW,202,0.0,-999.0,98,-99.99,,,0.00,Acu-Link.com,2013-08-16 08:49:00,
2013-08-16 04:04:00,52.7,52.2,29.42,SSW,202,0.0,-999.0,98,-99.99,,,0.00,Acu-Link.com,2013-08-16 09:04:00,
2013-08-16 04:19:00,52.5,52.0,29.42,South,180,0.0,-999.0,98,-99.99,,,0.00,Acu-Link.com,2013-08-16 09:19:00,
2013-08-16 04:34:00,52.3,51.8,29.42,South,180,0.0,-999.0,98,-99.99,,,0.00,Acu-Link.com,2013-08-16 09:34:00,
2013-08-16 04:49:00,52.0,51.5,29.43,SSW,202,0.0,-999.0,98,-99.99,,,0.00,Acu-Link.com,2013-08-16 09:49:00,
2013-08-16 05:05:00,52.2,51.7,29.43,WSW,247,0.0,-999.0,98,-99.99,,,0.00,Acu-Link.com,2013-08-16 10:05:00,
2013-08-16 05:20:00,52.2,51.7,29.43,SE,135,0.0,-999.0,98,-99.99,,,0.00,Acu-Link.com,2013-08-16 10:20:00,
2013-08-16 05:35:00,53.1,52.5,29.44,SSW,202,0.0,-999.0,98,-99.99,,,0.00,Acu-Link.com,2013-08-16 10:35:00,
2013-08-16 05:50:00,52.9,52.4,29.44,South,180,0.0,-999.0,98,-99.99,,,0.00,Acu-Link.com,2013-08-16 10:50:00,
2013-08-16 06:05:00,52.3,51.8,29.44,SSW,202,0.0,-999.0,98,-99.99,,,0.00,Acu-Link.com,2013-08-16 11:05:00,
2013-08-16 06:20:00,52.7,52.2,29.45,South,180,0.0,-999.0,98,-99.99,,,0.00,Acu-Link.com,2013-08-16 11:20:00,
2013-08-16 06:35:00,52.5,52.0,29.45,South,180,0.0,-999.0,98,-99.99,,,0.00,Acu-Link.com,2013-08-16 11:35:00,
2013-08-16 06:50:00,52.7,52.2,29.46,SSW,202,0.0,-999.0,98,-99.99,,,0.00,Acu-Link.com,2013-08-16 11:50:00,
2013-08-16 07:05:00,53.4,52.8,29.46,South,180,0.0,-999.0,98,-99.99,,,0.00,Acu-Link.com,2013-08-16 12:05:00,
2013-08-16 07:21:00,54.1,53.5,29.46,SE,135,0.0,-999.0,98,-99.99,,,0.00,Acu-Link.com,2013-08-16 12:21:00,
2013-08-16 07:36:00,55.0,50.9,29.46,SSE,157,0.0,-999.0,86,-99.99,,,0.00,Acu-Link.com,2013-08-16 12:36:00,
2013-08-16 07:51:00,56.1,50.7,29.47,NE,45,0.0,-999.0,82,-99.99,,,0.00,Acu-Link.com,2013-08-16 12:51:00,
2013-08-16 08:06:00,57.2,51.1,29.47,East,90,0.0,-999.0,80,-99.99,,,0.00,Acu-Link.com,2013-08-16 13:06:00,
2013-08-16 08:21:00,60.1,52.9,29.47,NW,315,0.0,-999.0,77,-99.99,,,0.00,Acu-Link.com,2013-08-16 13:21:00,
2013-08-16 08:36:00,66.6,66.0,29.47,SSE,157,0.0,-999.0,98,-99.99,,,0.00,Acu-Link.com,2013-08-16 13:36:00,
2013-08-16 08:51:00,71.2,65.8,29.48,East,90,0.0,-999.0,83,-99.99,,,0.00,Acu-Link.com,2013-08-16 13:51:00,
2013-08-16 09:06:00,75.4,66.1,29.48,NE,45,0.0,-999.0,73,-99.99,,,0.00,Acu-Link.com,2013-08-16 14:06:00,
2013-08-16 09:21:00,77.0,65.2,29.47,ESE,112,0.0,-999.0,67,-99.99,,,0.00,Acu-Link.com,2013-08-16 14:21:00,
2013-08-16 09:37:00,79.3,66.0,29.48,ESE,112,0.0,-999.0,64,-99.99,,,0.00,Acu-Link.com,2013-08-16 14:37:00,
2013-08-16 09:52:00,81.3,65.1,29.48,SE,135,0.0,-999.0,58,-99.99,,,0.00,Acu-Link.com,2013-08-16 14:52:00,
2013-08-16 10:07:00,82.6,64.8,29.48,SSW,202,0.0,-999.0,55,-99.99,,,0.00,Acu-Link.com,2013-08-16 15:07:00,
2013-08-16 10:22:00,83.7,64.2,29.48,NNW,337,0.0,-999.0,52,-99.99,,,0.00,Acu-Link.com,2013-08-16 15:22:00,
2013-08-16 10:37:00,84.2,62.9,29.48,South,180,0.0,-999.0,49,-99.99,,,0.00,Acu-Link.com,2013-08-16 15:37:00,
2013-08-16 10:52:00,84.0,63.3,29.48,NNE,22,0.0,-999.0,50,-99.99,,,0.00,Acu-Link.com,2013-08-16 15:52:00,
2013-08-16 11:07:00,85.8,63.2,29.48,ESE,112,0.0,-999.0,47,-99.99,,,0.00,Acu-Link.com,2013-08-16 16:07:00,
2013-08-16 11:22:00,86.5,63.2,29.48,ENE,67,0.0,-999.0,46,-99.99,,,0.00,Acu-Link.com,2013-08-16 16:22:00,
2013-08-16 11:37:00,88.7,63.3,29.48,WNW,292,0.0,-999.0,43,-99.99,,,0.00,Acu-Link.com,2013-08-16 16:37:00,
2013-08-16 11:53:00,87.4,60.8,29.48,East,90,0.0,-999.0,41,-99.99,,,0.00,Acu-Link.com,2013-08-16 16:53:00,
2013-08-16 12:08:00,90.3,63.4,29.48,South,180,0.0,-999.0,41,-99.99,,,0.00,Acu-Link.com,2013-08-16 17:08:00,
2013-08-16 12:23:00,89.1,59.4,29.48,SSE,157,0.0,-999.0,37,-99.99,,,0.00,Acu-Link.com,2013-08-16 17:23:00,
2013-08-16 12:38:00,87.3,60.7,29.47,East,90,0.0,-999.0,41,-99.99,,,0.00,Acu-Link.com,2013-08-16 17:38:00,
2013-08-16 12:53:00,83.7,57.5,29.47,SSE,157,0.0,-999.0,41,-99.99,,,0.00,Acu-Link.com,2013-08-16 17:53:00,
2013-08-16 13:08:00,86.9,58.9,29.47,South,180,0.0,-999.0,39,-99.99,,,0.00,Acu-Link.com,2013-08-16 18:08:00,
2013-08-16 13:23:00,86.5,60.0,29.46,SW,225,0.0,-999.0,41,-99.99,,,0.00,Acu-Link.com,2013-08-16 18:23:00,
2013-08-16 13:38:00,89.2,58.7,29.46,NE,45,0.0,-999.0,36,-99.99,,,0.00,Acu-Link.com,2013-08-16 18:38:00,
2013-08-16 13:53:00,89.2,58.7,29.46,SSE,157,0.0,-999.0,36,-99.99,,,0.00,Acu-Link.com,2013-08-16 18:53:00,
2013-08-16 14:08:00,90.3,59.7,29.45,NE,45,0.0,-999.0,36,-99.99,,,0.00,Acu-Link.com,2013-08-16 19:08:00,
2013-08-16 14:24:00,90.0,57.8,29.45,SSE,157,0.0,-999.0,34,-99.99,,,0.00,Acu-Link.com,2013-08-16 19:24:00,
2013-08-16 14:39:00,90.0,60.2,29.45,ESE,112,0.0,-999.0,37,-99.99,,,0.00,Acu-Link.com,2013-08-16 19:39:00,
2013-08-16 14:54:00,87.4,59.4,29.45,West,270,0.0,-999.0,39,-99.99,,,0.00,Acu-Link.com,2013-08-16 19:54:00,
2013-08-16 15:09:00,80.2,57.5,29.45,SSE,157,0.0,-999.0,46,-99.99,,,0.00,Acu-Link.com,2013-08-16 20:09:00,
2013-08-16 15:24:00,86.0,57.4,29.45,SE,135,0.0,-999.0,38,-99.99,,,0.00,Acu-Link.com,2013-08-16 20:24:00,
2013-08-16 15:39:00,82.0,57.9,29.44,SSE,157,0.0,-999.0,44,-99.99,,,0.00,Acu-Link.com,2013-08-16 20:39:00,
2013-08-16 15:54:00,87.4,59.4,29.44,South,180,0.0,-999.0,39,-99.99,,,0.00,Acu-Link.com,2013-08-16 20:54:00,
2013-08-16 16:09:00,88.5,58.9,29.44,NW,315,0.0,-999.0,37,-99.99,,,0.00,Acu-Link.com,2013-08-16 21:09:00,
2013-08-16 16:24:00,89.4,57.3,29.44,NNW,337,0.0,-999.0,34,-99.99,,,0.00,Acu-Link.com,2013-08-16 21:24:00,
2013-08-16 16:40:00,88.5,56.5,29.44,SSE,157,0.0,-999.0,34,-99.99,,,0.00,Acu-Link.com,2013-08-16 21:40:00,
2013-08-16 16:55:00,87.3,57.0,29.43,SSW,202,0.0,-999.0,36,-99.99,,,0.00,Acu-Link.com,2013-08-16 21:55:00,
2013-08-16 17:10:00,84.4,56.0,29.43,South,180,0.0,-999.0,38,-99.99,,,0.00,Acu-Link.com,2013-08-16 22:10:00,
2013-08-16 17:25:00,84.7,56.3,29.43,East,90,0.0,-999.0,38,-99.99,,,0.00,Acu-Link.com,2013-08-16 22:25:00,
2013-08-16 17:40:00,85.6,56.3,29.43,South,180,0.0,-999.0,37,-99.99,,,0.00,Acu-Link.com,2013-08-16 22:40:00,
2013-08-16 17:55:00,86.4,57.0,29.43,East,90,0.0,-999.0,37,-99.99,,,0.00,Acu-Link.com,2013-08-16 22:55:00,
2013-08-16 18:11:00,82.8,57.3,29.44,ENE,67,0.0,-999.0,42,-99.99,,,0.00,Acu-Link.com,2013-08-16 23:11:00,
2013-08-16 18:26:00,82.4,57.0,29.44,SSE,157,0.0,-999.0,42,-99.99,,,0.00,Acu-Link.com,2013-08-16 23:26:00,
2013-08-16 18:41:00,81.9,57.2,29.44,SW,225,0.0,-999.0,43,-99.99,,,0.00,Acu-Link.com,2013-08-16 23:41:00,
2013-08-16 18:56:00,80.6,57.9,29.44,South,180,0.0,-999.0,46,-99.99,,,0.00,Acu-Link.com,2013-08-16 23:56:00,
2013-08-16 19:11:00,79.3,58.5,29.44,SE,135,0.0,-999.0,49,-99.99,,,0.00,Acu-Link.com,2013-08-17 00:11:00,
2013-08-16 19:26:00,77.9,58.3,29.44,South,180,0.0,-999.0,51,-99.99,,,0.00,Acu-Link.com,2013-08-17 00:26:00,
2013-08-16 19:41:00,74.1,58.4,29.44,South,180,0.0,-999.0,58,-99.99,,,0.00,Acu-Link.com,2013-08-17 00:41:00,
2013-08-16 19:56:00,72.5,59.2,29.44,SSW,202,0.0,-999.0,63,-99.99,,,0.00,Acu-Link.com,2013-08-17 00:56:00,
2013-08-16 20:11:00,70.2,59.1,29.44,SW,225,0.0,-999.0,68,-99.99,,,0.00,Acu-Link.com,2013-08-17 01:11:00,
2013-08-16 20:27:00,68.0,59.0,29.44,SW,225,0.0,-999.0,73,-99.99,,,0.00,Acu-Link.com,2013-08-17 01:27:00,
2013-08-16 20:42:00,66.2,58.4,29.45,SW,225,0.0,-999.0,76,-99.99,,,0.00,Acu-Link.com,2013-08-17 01:42:00,
2013-08-16 20:57:00,64.6,57.2,29.45,SW,225,0.0,-999.0,77,-99.99,,,0.00,Acu-Link.com,2013-08-17 01:57:00,
2013-08-16 21:12:00,63.7,58.1,29.45,SW,225,0.0,-999.0,82,-99.99,,,0.00,Acu-Link.com,2013-08-17 02:12:00,
2013-08-16 21:27:00,62.8,57.9,29.46,SW,225,0.0,-999.0,84,-99.99,,,0.00,Acu-Link.com,2013-08-17 02:27:00,
2013-08-16 21:42:00,62.2,58.0,29.46,SW,225,0.0,-999.0,86,-99.99,,,0.00,Acu-Link.com,2013-08-17 02:42:00,
2013-08-16 21:57:00,61.7,61.1,29.46,SW,225,0.0,-999.0,98,-99.99,,,0.00,Acu-Link.com,2013-08-17 02:57:00,
2013-08-16 22:12:00,61.2,60.6,29.46,SSW,202,0.0,-999.0,98,-99.99,,,0.00,Acu-Link.com,2013-08-17 03:12:00,
2013-08-16 22:27:00,60.8,60.2,29.46,SW,225,0.0,-999.0,98,-99.99,,,0.00,Acu-Link.com,2013-08-17 03:27:00,
2013-08-16 22:42:00,60.1,59.5,29.46,SSW,202,0.0,-999.0,98,-99.99,,,0.00,Acu-Link.com,2013-08-17 03:42:00,
2013-08-16 22:58:00,59.5,58.9,29.46,South,180,0.0,-999.0,98,-99.99,,,0.00,Acu-Link.com,2013-08-17 03:58:00,
2013-08-16 23:13:00,59.2,58.6,29.46,SW,225,0.0,-999.0,98,-99.99,,,0.00,Acu-Link.com,2013-08-17 04:13:00,
2013-08-16 23:28:00,59.0,58.4,29.46,South,180,0.0,-999.0,98,-99.99,,,0.00,Acu-Link.com,2013-08-17 04:28:00,
2013-08-16 23:43:00,58.5,57.9,29.46,SW,225,0.0,-999.0,98,-99.99,,,0.00,Acu-Link.com,2013-08-17 04:43:00,
2013-08-16 23:58:00,58.3,57.7,29.47,SW,225,0.0,-999.0,98,-99.99,,,0.00,Acu-Link.com,2013-08-17 04:58:00,